Location: Unspecified
(0.0000°N, 0.0000°E)
Time: 17:43:45
(UTC+00:00)

Courier 1B Rocket - Pass Details

Date: 02 October 2020
Orbit: 921 x 1202 km, 28.2° (Epoch: 27 October)

Event Time Altitude Azimuth Distance (km) Brightness Sun altitude
Rises 13:28:51 0° 293° (WNW) 3,643 8.3 64.8°
Reaches altitude 10° 13:31:26 10° 290° (WNW) 2,731 7.9 64.2°
Maximum altitude 13:38:01 64° 210° (SSW) 1,139 7.0 62.5°
Drops below altitude 10° 13:45:08 10° 129° (SE) 2,942 7.4 60.8°
Sets 13:48:01 0° 126° (SE) 3,943 8.0 60.1°
